Regional Weather Roundup
Issued by NWS

Home | Current Version | Previous Version | Text Only | Print | Product List | Glossary On
Versions: 1 2 3 4 5 6 7 8 9 10 11 12 13 14 15 16 17 18 19 20 21 22 23 24 25 26 27 28 29 30 31 32 33 34 35 36 37 38 39 40 41 42 43 44 45 46 47 48 49 50
691
ASUS42 KKEY 241310
RWRKEY

FLORIDA REGIONAL WEATHER ROUNDUP FOR THE FLORIDA KEYS
NATIONAL WEATHER SERVICE KEY WEST FLORIDA
900 AM EDT SUN JUL 24 2016

...SOUTH FLORIDA AND THE KEYS...

CITY           SKY/WX    TMP DP  RH WIND       PRES   REMARKS
FORT MYERS     SUNNY     79  73  82 CALM      30.05R
SW REGIONAL AP SUNNY     80  72  76 SW3       30.06R
NAPLES         MOSUNNY   81  76  84 SE5       30.05R
MIAMI          CLOUDY    81  74  79 CALM      30.06R
WEST KENDALL   LGT RAIN  78  76  93 CALM      30.05S
HOMESTEAD      CLOUDY    80  76  90 MISG      30.04S
MARATHON       TSTM      72  72 100 S5        30.06F FOG
BOCA CHICA NAS LGT RAIN  81  76  84 N6        30.05S
KEY WEST INTL  LGT RAIN  79  77  94 N6        30.05S

...INTERNATIONAL WEATHER...

CITY           SKY/WX    TMP DP  RH WIND       PRES   REMARKS
NASSAU BAHAMAS PTSUNNY   86  77  74 E7        30.09R HX  97
CANCUN MEXICO  PTSUNNY   84  79  84 E8        30.00R HX  96
COZUMEL MEXICO MOSUNNY   77  77 100 SE3       30.00R

ADJACENT COASTAL WATERS...

STATION/POSITION TIME  SKY/WX   TEMP    WIND        PRES    WAVE
                                AIR SEA DIR/SP/G            HT/PER
                 (UTC)          (F)     (DEG/KT/KT) (MB)    (FT/S)
PULASKI SHOAL LI 1300            80     100/ 14/ 15 1017.5F
SAND KEY         1250            81      50/ 10/ 11 1018.0R
LONG KEY         1200            79 86  180/ 15/ 17 1018.1R
FOWEY ROCKS      1300            83 85     CALM     1018.0S

$$




USA.gov is the U.S. government's official web portal to all federal, state and local government web resources and services.